TimeCDT,TemperatureF,Dew PointF,Humidity,Sea Level PressureIn,VisibilityMPH,Wind Direction,Wind SpeedMPH,Gust SpeedMPH,PrecipitationIn,Events,Conditions,WindDirDegrees,DateUTC
12:54 AM,39.0,21.0,49,29.94,10.0,NW,11.5,-,N/A,,Clear,310,2012-11-01 05:54:00
1:54 AM,39.0,21.9,50,29.94,10.0,WNW,11.5,-,N/A,,Clear,300,2012-11-01 06:54:00
2:54 AM,37.0,21.0,52,29.96,10.0,NW,9.2,-,N/A,,Clear,310,2012-11-01 07:54:00
3:54 AM,36.0,21.0,55,29.95,10.0,NW,6.9,-,N/A,,Clear,310,2012-11-01 08:54:00
4:54 AM,36.0,21.9,57,29.96,10.0,West,4.6,-,N/A,,Clear,280,2012-11-01 09:54:00
5:54 AM,36.0,24.1,62,29.95,10.0,WNW,5.8,-,N/A,,Mostly Cloudy,290,2012-11-01 10:54:00
6:54 AM,37.9,23.0,55,29.97,10.0,WNW,4.6,-,N/A,,Overcast,290,2012-11-01 11:54:00
7:54 AM,36.0,25.0,64,29.96,10.0,West,5.8,-,N/A,,Mostly Cloudy,280,2012-11-01 12:54:00
8:54 AM,41.0,26.1,55,29.99,10.0,West,6.9,-,N/A,,Clear,270,2012-11-01 13:54:00
11:54 AM,51.1,25.0,36,29.98,10.0,WSW,8.1,-,N/A,,Mostly Cloudy,240,2012-11-01 16:54:00
1:54 PM,55.9,30.9,39,29.92,10.0,Variable,4.6,-,N/A,,Overcast,0,2012-11-01 18:54:00
2:54 PM,57.0,34.0,42,29.90,10.0,WSW,10.4,-,N/A,,Overcast,250,2012-11-01 19:54:00
3:54 PM,57.0,34.0,42,29.88,10.0,SW,11.5,-,N/A,,Overcast,230,2012-11-01 20:54:00
5:54 PM,51.1,37.0,59,29.87,10.0,SW,5.8,-,N/A,,Clear,230,2012-11-01 22:54:00
6:54 PM,52.0,37.9,59,29.87,10.0,WSW,10.4,-,N/A,,Clear,240,2012-11-01 23:54:00
7:54 PM,51.1,37.0,59,29.87,10.0,WSW,9.2,-,N/A,,Partly Cloudy,240,2012-11-02 00:54:00
8:54 PM,50.0,37.9,63,29.88,10.0,WSW,8.1,-,N/A,,Mostly Cloudy,250,2012-11-02 01:54:00
9:54 PM,48.0,37.9,68,29.89,10.0,WNW,4.6,-,N/A,,Scattered Clouds,290,2012-11-02 02:54:00
10:54 PM,46.9,37.9,71,29.89,10.0,NW,8.1,-,N/A,,Clear,310,2012-11-02 03:54:00
11:54 PM,46.0,37.0,71,29.90,10.0,NW,8.1,-,N/A,,Clear,320,2012-11-02 04:54:00